FW6429 Weather Reports


time (UTC)temp
C
wind
direction
speed
KPH
gust
KPH
rain 1hr
cm
rain 24hr
cm
rain mn
cm
humidity
%
barometer
mb
20260504081547 3 260 12.9 32.2 0.00 0.00 0.00 89 977.9
20260504050023 3 163 17.7 49.9 0.00 0.00 0.00 91 975.4
20260504044522 3 190 16.1 43.5 0.00 0.00 0.00 91 975.9
20260504043033 3 194 11.3 46.7 0.00 0.00 0.00 91 977.0
20260504041512 3 190 16.1 45.1 0.00 0.00 0.00 91 977.8
20260504040012 4 196 16.1 38.6 0.00 0.00 0.00 90 978.7
20260504034507 4 166 20.9 43.5 0.00 0.00 0.00 89 979.2
20260504033003 4 218 19.3 35.4 0.00 0.00 0.00 87 980.0
20260504031603 4 183 8.0 30.6 0.00 0.00 0.00 86 980.5
20260504030057 5 212 9.7 37.0 0.00 0.00 0.00 86 981.4
20260504024555 5 224 9.7 30.6 0.00 0.00 0.00 87 982.3
20260504023052 5 226 14.5 29.0 0.00 0.00 0.00 87 982.8
20260504021549 5 184 12.9 24.1 0.00 0.00 0.00 87 983.3
20260504020126 5 194 11.3 32.2 0.00 0.00 0.00 87 983.7
20260504014559 5 218 9.7 22.5 0.00 0.00 0.00 87 984.2
20260504013055 5 184 8.0 20.9 0.00 0.00 0.00 88 984.6
20260504011541 5 165 8.0 20.9 0.00 0.00 0.00 88 984.9
20260504010043 4 181 8.0 29.0 0.00 0.00 0.00 88 985.7
20260504004546 4 173 9.7 40.2 0.00 0.00 0.00 88 986.7
20260504003033 3 150 12.9 30.6 0.00 0.00 0.00 88 987.4
20260504001536 3 119 12.9 29.0 0.00 0.00 0.00 88 988.3
20260504000028 3 121 12.9 33.8 0.00 0.00 0.00 89 988.9
20260503234527 3 119 11.3 29.0 0.00 0.00 0.00 89 989.3
20260503233023 3 92 14.5 29.0 0.00 0.00 0.00 89 990.3
20260503231520 3 171 8.0 20.9 0.00 0.00 0.00 89 991.9
20260503230016 3 84 8.0 29.0 0.00 0.00 0.00 89 992.9
20260503224512 3 131 12.9 24.1 0.00 0.00 0.00 90 993.9
20260503223009 3 132 9.7 25.7 0.00 0.00 0.00 90 994.9
20260503221509 3 156 6.4 16.1 0.00 0.00 0.00 91 995.5
20260503220005 3 109 6.4 19.3 0.00 0.00 0.00 91 996.0
20260503214503 2 171 8.0 20.9 0.00 0.00 0.00 92 996.4
20260503213007 2 142 6.4 22.5 0.00 0.00 0.00 93 996.5
20260503211500 2 115 12.9 24.1 0.00 0.00 0.00 94 996.7
20260503210058 2 127 11.3 29.0 0.00 0.00 0.00 94 997.8
20260503204557 2 73 9.7 30.6 0.00 0.00 0.00 94 998.8
20260503203111 2 158 9.7 24.1 0.00 0.00 0.00 94 999.2
20260503201552 1 93 4.8 20.9 0.00 0.00 0.00 94 1000.5
20260503200050 1 111 9.7 30.6 0.00 0.00 0.00 94 1001.3
20260503194548 1 101 12.9 27.4 0.00 0.00 0.00 94 1001.9
20260503193047 1 131 12.9 24.1 0.00 0.00 0.00 93 1001.6
20260503191547 2 82 8.0 19.3 0.00 0.00 0.00 93 1002.6
20260503190054 3 200 8.0 19.3 0.00 0.00 0.00 92 1004.1
20260503184538 3 64 8.0 16.1 0.00 0.00 0.00 91 1004.3
20260503183036 4 119 6.4 14.5 0.00 0.00 0.00 90 1006.0
20260503181536 4 88 6.4 16.1 0.00 0.00 0.00 89 1005.8
20260503180034 4 80 4.8 14.5 0.00 0.00 0.00 89 1007.0
20260503174527 4 106 3.2 12.9 0.00 0.00 0.00 88 1008.3
20260503173026 4 121 6.4 14.5 0.00 0.00 0.00 87 1008.4
20260503171524 4 106 1.6 12.9 0.00 0.00 0.00 86 1009.2